User: anonymous   Login
Location: Ostrava
(49.8330°N, 18.2830°E)
Time: 20:11:56
(UTC+01:00)
Language:

Vanguard 2 Rocket - Orbit

View from above orbital plane
View from above orbital plane
View from above satellite
View from above satellite

Ground track
Ground track

The orbit data is extracted from the following two-line orbital elements,

1 00012U 59001B   14332.18010324  .00000430  00000-0  23281-3 0  9637
2 00012 032.9098 244.6168 1671557 216.5001 130.9349 11.43456133290207
Epoch (UTC): 28 November 2014 04:19:20
Eccentricity: 0.1671557
inclination: 32.9098°
perigee height: 553 km
apogee height: 3335 km
right ascension of ascending node: 244.6168°
argument of perigee: 216.5001°
revolutions per day: 11.43456133
mean anomaly at epoch: 130.9349°
orbit number at epoch: 29020

The dashed part of the orbit path shows where the satellite is in the earth's shadow,  

DLR